Flag for Canada Weather past 2 weeks in Rae-Edzo, Northwest Territories, Canada

Now
25 °F

Cold.


Feels Like: 25 °F
Forecast: 27 / 35 °F
Wind: 2 mph from East

Location: Lac La Martre

Current Time: Oct 22, 2014 at 7:17:02 AM

Latest Report: Oct 22, 2014 at 6:00 AM


Visibility: N/A

Pressure: 29.75 "Hg

Humidity: 96%

Dew point: 24 °F

Location of Rae-EdzoLocation

Historic Weather in Rae-Edzo — Graph

°F

Rae-Edzo temperature yesterday

Maximum temperature yesterday: 33 °F (at 1:00 AM)
Minimum temperature yesterday: 28 °F (at 11:00 PM)
Average temperature yesterday: 31 °F

Past Weeks' High & Low Weather Summary

 TemperatureHumidityPressure
High42 °F (Oct 10, 4:00 PM)100% (Oct 17, 6:00 AM)30.30 "Hg (Oct 17, 6:00 AM)
Low22 °F (Oct 15, 8:00 AM)60% (Oct 8, 2:00 PM)29.20 "Hg (Oct 11, 9:00 AM)
Average32 °F89%29.79 "Hg
* Reported Oct 7 6:00 AM — Oct 22 6:00 AM, Rae-Edzo, Weather by CustomWeather, © 2014

Note: Actual official high and low records may vary slightly from our data, if they occured in-between our weather recording intervals... More about our weather records

Advertising

Rae-Edzo weather history for previous 24 hours

 ConditionsComfort  
Time TempWeatherWind HumidityBarometerVisibility
6:00 AM
Oct 22
25 °FCold.2 mph96%29.75 "HgN/A
4:00 AM26 °FChilly.3 mph93%29.74 "HgN/A
3:00 AM25 °FChilly.5 mph94%29.73 "HgN/A
2:00 AM25 °FChilly.2 mph100%29.72 "HgN/A
1:00 AM27 °FChilly.3 mph91%29.69 "HgN/A
12:00 AM28 °FChilly.3 mph88%29.68 "HgN/A
11:00 PM
Oct 21
28 °FChilly.6 mph89%29.66 "HgN/A
10:00 PM29 °FChilly.5 mph89%29.65 "HgN/A
9:00 PM30 °FChilly.6 mph89%29.63 "HgN/A
8:00 PM32 °FChilly.6 mph90%29.61 "HgN/A
7:00 PM31 °FChilly.3 mph94%29.59 "HgN/A
6:00 PM31 °FChilly.5 mph97%29.57 "HgN/A
5:00 PM32 °FChilly.2 mph96%29.56 "HgN/A
4:00 PM31 °FChilly.6 mph98%29.55 "HgN/A
3:00 PM31 °FChilly.6 mph97%29.53 "HgN/A
2:00 PM31 °FChilly.7 mph95%29.52 "HgN/A
1:00 PM32 °FChilly.7 mph95%29.51 "HgN/A
12:00 PM31 °FChilly.8 mph97%29.49 "HgN/A
11:00 AM31 °FChilly.3 mph98%29.47 "HgN/A
10:00 AM31 °FChilly.2 mph98%29.46 "HgN/A
9:00 AM31 °FChilly.3 mph100%29.46 "HgN/A
8:00 AM32 °FChilly.3 mph99%29.46 "HgN/A
7:00 AM32 °FChilly.3 mph99%29.44 "HgN/A
Weather by CustomWeather, © 2014

See weather overviewHow to use our weather pages